Location: Belfast
(54.5830°N, 5.9330°W)
Time: 15:02:01
(UTC+01:00)

ISS - Pass Details

Date: 14 September 2018
Orbit: 402 x 408 km, 51.6° (Epoch: 18 September)

Event Time Altitude Azimuth Distance (km) Brightness Sun altitude
Exits shadow 04:50:09 36° 174° (S) 667 -3.0 -17.6°
Drops below altitude 10° 04:52:46 10° 126° (SE) 1,458 -0.8 -17.2°
Sets 04:54:54 0° 118° (ESE) 2,315 0.4 -17.0°
